Location: Chateh
(58.6667°N, 118.6000°W)
Time: 10:15:04
(UTC+00:00)

ITUPSAT 1 - Visible Passes

Search period start: 01 December 2023 00:00
Search period end: 11 December 2023 00:00
Orbit: 697 x 707 km, 98.5° (Epoch: 01 December)

Date Brightness Start Highest point End Pass type
(mag) Time Alt. Az. Time Alt. Az. Time Alt. Az.
01 Dec ? 13:52:37 10° ENE 13:54:49 13° NE 13:57:01 10° NNE visible
01 Dec ? 15:26:58 10° SE 15:31:29 43° ENE 15:36:01 10° N visible
02 Dec ? 14:33:24 10° E 14:36:58 21° NE 14:40:33 10° N visible
03 Dec ? 13:41:12 10° NE 13:42:46 11° NE 13:44:19 10° NNE visible
03 Dec ? 15:14:57 10° SE 15:19:18 36° ENE 15:23:41 10° N visible
04 Dec ? 14:21:36 10° E 14:24:51 18° NE 14:28:06 10° N visible
05 Dec ? 13:30:41 10° NE 13:30:43 10° NNE 13:30:45 10° NNE visible
05 Dec ? 15:02:57 10° ESE 15:07:07 31° NE 15:11:18 10° N visible
06 Dec ? 14:09:53 10° E 14:12:44 16° NE 14:15:35 10° N visible
07 Dec ? 14:51:00 10° ESE 14:54:56 26° NE 14:58:54 10° N visible
08 Dec ? 13:58:14 10° ENE 14:00:37 14° NE 14:03:01 10° N visible
08 Dec ? 15:32:46 10° SE 15:37:20 46° ENE 15:41:56 10° N visible
09 Dec ? 14:39:05 10° E 14:42:46 22° NE 14:46:26 10° N visible
10 Dec ? 13:46:41 10° ENE 13:48:30 12° NE 13:50:19 10° NNE visible
10 Dec ? 15:20:40 10° SE 15:25:05 39° ENE 15:29:32 10° N visible
